Temperature
27 26 25 24 23 22 21 21 21 20 20 20 20 20 20 20 20 20 19 19 19 19 19 19 19 19 18 18 18 18 18 18 19 19 19 19 19 19 19 19 19 18 18
27 26 25 24 23 22 21 21 21 20 20 20 20 20 20 20 20 20 19 19 19 19 19 19 19 19 18 18 18 18 18 18 18 18 18 19 19 19 19 19 19 19 18
27 26 25 24 23 22 21 21 21 20 20 20 20 20 20 20 20 19 19 19 19 19 19 19 19 19 18 18 18 18 18 18 18 18 18 18 18 19 19 19 19 19 18
28 26 25 24 23 22 22 21 21 21 20 20 20 20 20 19 19 19 19 19 19 19 19 19 18 18 18 18 18 18 18 18 18 18 18 18 18 18 18 19 19 18 18
28 27 25 24 23 23 22 21 21 20 20 20 20 20 20 19 19 19 19 19 19 19 19 19 18 18 18 18 18 18 18 18 18 18 18 18 18 18 18 18 18 18 18
28 27 25 24 23 23 22 21 21 21 20 20 20 20 19 19 19 19 19 19 19 19 19 18 18 18 18 18 18 18 18 18 18 18 18 18 18 18 18 18 18 18 18
28 27 26 24 24 23 22 21 21 20 20 20 20 19 19 19 19 19 19 19 19 19 19 18 18 18 18 18 18 17 17 17 17 18 18 18 18 18 18 18 18 18 18
28 27 26 25 24 23 22 21 21 20 20 20 20 19 19 19 19 19 19 19 18 19 18 18 18 18 18 18 17 17 17 17 17 17 17 17 17 18 18 17 17 17 18
28 27 26 25 24 23 22 22 21 20 20 20 20 19 19 19 19 19 19 19 18 18 18 18 18 18 18 17 17 17 17 17 17 17 17 17 17 17 17 17 17 17 17
28 27 26 25 24 23 23 22 21 21 20 20 19 19 19 19 19 19 19 19 19 18 18 18 18 18 17 17 17 17 17 17 17 17 17 17 17 17 17 17 17 17 17
28 27 26 25 24 23 23 22 21 20 20 20 19 19 19 19 19 19 18 18 18 18 18 17 17 17 17 17 17 17 17 17 17 17 16 17 17 17 17 17 17 17 17
28 27 26 25 24 24 23 22 21 20 20 20 19 19 19 19 18 18 18 18 18 18 18 17 17 17 17 17 17 17 17 17 16 16 16 16 16 16 16 16 16 16 16
27 26 26 25 24 24 23 22 21 21 20 19 19 19 19 18 18 18 18 18 18 18 18 17 17 17 17 17 16 16 16 16 16 16 16 16 16 16 16 16 16 16 16
26 26 25 25 24 23 23 22 21 21 20 20 19 19 18 18 18 18 18 18 17 17 17 17 17 17 17 16 16 16 16 16 16 16 16 16 16 16 16 16 16 16 16
26 25 24 24 23 23 22 22 21 21 20 20 19 19 19 18 18 18 18 17 17 17 17 17 17 17 16 16 16 16 16 16 16 15 15 15 15 15 15 15 15 15 15
25 24 23 23 22 22 22 21 21 20 20 19 19 19 18 18 18 17 17 17 17 17 17 17 17 16 16 16 16 16 16 15 15 15 15 15 15 15 15 15 15 14 14
25 24 23 22 22 21 21 21 20 20 20 19 19 18 18 18 18 17 17 17 17 17 16 16 16 16 16 16 16 16 15 15 15 15 15 15 15 15 14 14 14 14 14
24 23 22 21 21 21 20 20 20 20 19 19 18 18 18 18 17 17 17 17 16 16 16 16 16 16 16 16 16 15 15 15 15 15 15 15 15 14 14 14 14 14 14
23 22 22 21 20 20 20 19 19 19 18 18 18 18 18 17 17 17 17 16 16 16 16 16 16 16 16 16 15 15 15 15 15 14 14 14 14 14 14 14 14 14 14
22 21 21 21 20 20 19 19 18 18 18 18 18 17 17 17 17 17 16 16 16 16 16 15 15 15 15 15 15 15 15 14 14 14 14 14 14 14 14 14 13 13 13
21 21 20 20 19 19 19 18 18 18 18 18 17 17 17 17 16 16 16 16 16 15 15 15 15 15 15 15 15 15 15 14 14 14 14 14 14 14 13 13 13 13 13
21 20 20 19 19 19 18 18 18 17 17 17 17 17 16 16 16 16 16 15 15 15 15 15 15 15 15 15 15 15 15 14 14 14 13 13 13 13 13 13 13 13 13
20 20 19 19 18 18 18 18 17 17 17 17 17 17 16 16 16 16 15 15 15 15 15 15 14 15 15 14 14 14 14 14 14 13 13 13 13 13 13 13 12 12 12
20 19 19 18 18 18 18 17 17 17 17 16 16 16 16 16 16 16 15 15 15 15 15 14 14 14 14 14 14 14 14 14 13 13 13 13 13 13 13 12 12 12 12
19 19 18 18 17 17 17 17 17 17 16 16 16 16 16 16 16 16 15 15 15 15 15 15 14 14 14 14 14 14 14 13 13 13 13 13 13 12 12 12 12 12 12
18 18 18 17 17 17 17 16 16 16 16 16 16 16 16 16 16 15 15 15 15 15 15 15 14 14 14 14 14 14 14 13 13 13 13 12 12 12 12 12 12 12 11
Wind_Speed
12 11 10 11 11 9 8 6 5 5 3 2 2 3 2 2 2 3 3 3 2 2 1 1 1 1 1 1 0 1 2 2 1 1 2 1 2 3 3 2 2 3 5
12 11 10 10 11 10 8 7 6 5 4 3 2 2 2 2 3 2 3 3 2 1 2 2 1 1 1 1 1 0 1 2 1 1 1 1 1 1 2 3 3 4 3
13 13 11 10 10 9 9 7 6 5 4 3 3 2 2 1 2 3 3 2 2 1 1 1 0 0 1 1 1 1 1 2 2 0 0 1 1 1 1 1 1 2 3
12 13 12 10 10 10 9 7 6 5 4 3 3 3 3 2 2 1 2 2 2 1 1 1 0 1 1 1 1 1 1 1 2 2 1 1 1 1 1 1 1 1 2
13 13 13 11 10 10 10 8 7 5 4 4 3 2 2 2 1 2 2 2 1 1 1 1 1 0 0 1 1 1 2 1 2 2 2 2 1 2 1 2 1 1 1
13 13 12 11 10 10 10 10 8 6 5 5 4 3 2 2 2 1 1 2 1 1 1 2 1 1 1 1 1 1 1 1 2 3 3 2 1 1 1 2 2 1 2
12 13 13 12 11 10 10 10 9 7 6 5 4 3 3 2 2 1 1 1 1 1 1 2 1 0 0 0 1 0 1 2 2 2 3 3 3 2 1 2 2 2 2
12 13 13 12 11 11 10 10 10 8 7 6 4 3 2 2 1 1 1 0 1 1 2 2 1 0 1 1 1 1 1 1 2 3 3 3 3 3 2 2 2 3 2
12 12 12 12 11 11 10 10 10 9 8 7 5 4 3 2 1 2 1 1 1 1 2 2 1 1 0 1 0 1 2 2 2 2 3 3 3 3 3 2 2 2 3
11 11 11 10 10 10 10 9 10 8 7 7 6 5 4 3 2 2 2 2 1 2 1 0 1 0 0 1 1 1 1 1 2 2 2 3 3 3 3 3 2 2 2
9 10 11 10 11 10 10 9 9 8 7 6 5 4 4 3 3 2 2 2 1 1 1 1 0 0 1 0 0 1 1 1 2 2 2 3 3 4 4 3 3 2 2
8 9 10 10 10 10 10 9 8 8 7 6 6 4 4 3 3 2 2 2 2 1 1 0 1 1 0 1 1 2 2 1 2 2 3 3 3 3 4 4 4 3 2
7 8 8 9 8 8 8 9 8 8 8 7 6 4 4 3 3 3 2 2 2 1 1 0 1 1 0 0 1 1 1 2 2 2 2 2 3 3 3 4 3 3 3
7 7 6 7 7 7 7 7 7 6 7 6 6 4 3 3 3 2 2 2 2 2 1 1 1 1 1 1 1 1 1 2 2 2 2 2 2 3 4 4 3 3 3
8 7 6 6 6 6 6 6 5 5 5 5 4 4 3 2 2 2 2 3 3 3 2 2 2 2 2 1 0 1 1 1 2 2 2 2 2 3 3 3 3 3 3
7 7 7 6 5 5 4 5 5 4 5 4 4 3 3 2 2 3 3 3 3 3 3 2 2 2 2 1 2 1 2 2 2 3 3 2 2 1 1 3 4 4 4
6 7 6 5 5 4 4 3 3 4 4 4 4 3 3 3 3 3 2 3 3 2 2 3 2 1 1 0 1 1 1 2 3 3 4 4 4 2 2 3 4 4 4
6 6 6 5 4 4 3 2 3 3 4 4 3 3 3 3 3 3 3 3 2 2 3 3 3 2 2 1 1 1 2 2 2 2 3 2 3 4 3 3 2 3 3
6 5 4 4 4 3 3 3 2 2 3 3 3 3 3 3 3 3 3 3 3 3 3 3 3 3 2 2 2 2 2 2 3 3 2 2 1 2 3 2 2 3 3
6 4 3 4 4 4 3 2 2 2 2 2 2 2 2 3 4 4 3 3 3 4 4 3 3 3 3 3 3 3 3 3 3 2 2 1 1 2 2 2 2 3 3
6 4 4 4 3 3 3 2 1 1 1 1 2 2 3 4 4 3 2 3 4 4 4 4 3 3 4 4 4 4 3 3 3 2 1 0 0 1 2 3 2 4 4
5 4 3 3 3 3 3 2 1 1 1 2 2 3 3 4 3 2 3 4 5 5 4 4 4 3 3 4 5 6 5 4 3 3 2 1 3 4 4 3 4 4 3
3 2 2 2 2 2 2 2 1 0 1 2 3 3 4 4 4 4 4 4 4 4 4 4 4 4 3 3 6 7 7 5 3 3 3 3 4 4 4 5 5 3 2
1 0 1 1 0 1 1 1 1 0 1 2 3 3 4 4 4 4 5 5 5 5 5 5 5 3 2 2 2 3 4 4 4 3 3 3 5 4 3 2 2 3 2
1 0 0 1 1 1 1 1 0 0 2 3 3 4 4 4 4 4 4 5 4 5 5 4 3 3 3 2 3 3 3 3 3 3 3 3 2 2 2 2 2 2 2
1 1 1 1 1 1 1 1 0 1 2 3 4 4 3 3 3 4 3 2 4 5 5 5 4 3 4 4 4 4 4 4 3 2 3 3 3 3 3 3 2 2 2
Wind_Direction
153 151 153 148 143 140 141 143 147 139 142 149 167 164 164 166 143 127 115 117 124 140 146 117 159 147 133 151 281 304 290 269 259 290 310 264 218 176 159 185 178 171 177
153 153 156 151 150 151 151 151 152 147 147 154 169 169 156 160 127 113 118 126 150 175 173 161 200 168 151 175 231 307 297 303 307 311 321 316 323 333 189 184 195 183 172
159 157 157 153 152 153 156 153 145 147 153 170 166 152 138 138 132 148 137 145 156 149 103 140 279 274 187 171 214 219 249 296 311 333 200 266 257 295 273 208 186 163 160
164 158 157 157 156 154 149 137 139 143 152 166 163 167 157 157 160 139 126 150 156 151 142 148 136 336 9 28 296 83 301 291 297 293 249 248 247 240 294 283 226 187 186
161 158 158 158 160 156 150 144 137 142 149 156 160 166 152 145 122 112 121 150 151 159 165 125 139 115 32 347 2 8 332 326 307 309 302 297 276 231 231 264 290 320 255
157 154 152 153 156 154 152 150 145 150 154 156 152 147 143 136 127 135 164 198 168 165 150 125 116 103 46 358 347 313 300 304 316 311 305 303 290 288 264 255 262 249 257
154 153 151 153 157 160 157 151 150 155 159 162 159 157 164 169 184 194 181 227 158 123 91 102 105 92 193 263 290 343 319 304 300 297 298 299 295 286 273 267 271 264 257
158 157 156 154 157 158 157 154 154 158 164 163 157 156 175 194 166 136 143 310 64 105 103 103 119 203 254 283 16 336 280 297 301 300 306 299 298 296 288 276 285 298 297
157 154 154 155 158 160 160 158 154 159 164 166 162 162 169 162 137 146 185 120 88 132 116 133 148 196 297 333 0 300 301 315 321 314 313 307 303 299 289 290 276 274 293
154 149 150 150 151 158 157 157 155 159 160 165 174 167 165 167 167 144 100 68 58 47 70 142 136 120 290 297 305 277 290 308 296 289 317 318 317 317 306 293 288 276 264
153 153 151 151 150 149 150 151 150 156 160 161 159 152 158 166 163 148 142 127 105 114 96 44 41 240 261 267 321 293 305 308 312 312 322 320 317 315 313 316 307 293 291
147 147 149 149 153 156 155 151 150 155 154 152 152 156 154 161 172 162 148 141 148 159 137 165 275 269 351 353 316 314 338 339 327 325 326 318 317 323 318 318 311 306 301
130 128 135 144 148 149 149 150 156 158 154 150 153 158 169 178 183 172 167 161 157 173 131 123 301 319 358 351 320 331 328 317 314 320 316 316 326 317 316 306 303 299 298
124 127 126 130 137 137 134 140 151 152 153 154 157 159 179 188 191 178 172 179 180 197 198 225 245 257 277 290 289 308 309 309 327 332 324 320 314 315 313 308 313 311 309
133 129 123 111 116 125 133 137 142 143 144 144 151 158 166 170 183 189 197 200 203 214 206 224 236 244 252 271 347 289 284 312 313 316 314 311 323 332 319 323 322 318 315
134 127 121 119 116 111 122 130 134 135 137 148 158 160 165 180 194 209 218 218 220 226 218 225 241 250 266 31 38 6 336 332 314 308 303 284 291 310 324 324 319 310 296
131 126 125 121 119 116 115 115 129 139 145 154 162 172 184 192 199 218 214 226 233 230 223 230 230 204 264 32 74 0 307 304 302 299 303 303 306 350 342 314 296 304 299
122 126 131 129 135 132 122 113 124 138 152 161 172 179 191 201 207 213 216 221 225 228 229 232 231 206 238 224 195 266 259 272 279 290 294 299 333 336 339 318 314 306 304
109 108 118 124 124 124 118 127 137 144 156 178 196 194 193 208 217 220 221 216 218 229 232 228 230 215 231 223 214 227 257 261 263 264 277 292 343 349 0 336 315 308 305
106 105 114 108 104 107 128 145 150 158 182 199 207 205 205 223 226 225 225 226 226 233 237 234 234 225 224 213 211 222 250 263 264 260 264 281 22 23 360 319 303 304 311
96 94 103 116 121 134 146 153 148 174 211 216 217 211 209 228 225 223 222 222 228 237 233 228 232 225 212 198 198 205 244 268 281 274 269 250 135 275 283 274 271 280 290
97 94 97 113 128 140 148 148 159 197 232 242 231 225 216 231 232 209 229 230 228 230 229 228 233 227 212 200 200 202 229 268 288 294 302 222 202 235 255 255 268 285 298
92 83 106 118 129 144 151 170 171 256 268 273 255 242 233 219 216 219 231 234 230 228 229 228 234 229 219 202 195 203 224 249 266 295 307 276 238 246 241 239 256 277 285
99 50 64 71 95 127 155 175 163 199 274 273 272 254 238 220 207 211 216 225 236 235 233 232 236 227 207 194 195 214 229 239 249 273 285 257 238 251 258 238 238 235 250
65 8 347 328 324 47 10 339 4 248 271 270 275 269 250 232 212 217 228 229 234 234 235 239 236 236 235 212 201 216 231 244 251 266 258 249 234 232 233 228 226 232 231
4 315 302 304 305 312 298 334 332 255 273 274 276 275 271 248 219 216 236 248 235 226 214 215 217 222 203 202 209 217 230 234 217 228 250 244 240 246 248 244 233 223 219
Height
1497 1500 1503 1505 1507 1509 1510 1511 1513 1514 1515 1516 1517 1518 1519 1521 1521 1522 1522 1522 1523 1524 1525 1525 1525 1525 1526 1526 1526 1526 1526 1527 1527 1527 1527 1527 1527 1527 1527 1527 1527 1527 1527
1495 1498 1502 1504 1506 1508 1509 1510 1512 1513 1514 1515 1516 1517 1519 1520 1521 1522 1522 1522 1523 1524 1525 1525 1525 1525 1525 1525 1526 1525 1525 1526 1526 1527 1526 1526 1527 1526 1526 1526 1526 1526 1526
1492 1496 1500 1503 1505 1507 1508 1510 1511 1512 1513 1514 1516 1517 1518 1520 1521 1522 1522 1522 1523 1524 1524 1524 1524 1525 1525 1525 1525 1525 1525 1525 1526 1526 1527 1526 1526 1525 1526 1526 1526 1526 1525
1490 1494 1498 1501 1504 1506 1507 1508 1510 1511 1512 1514 1515 1517 1518 1519 1520 1521 1522 1522 1523 1523 1523 1523 1523 1524 1524 1524 1524 1524 1524 1524 1525 1525 1525 1526 1525 1525 1525 1525 1525 1525 1525
1486 1491 1495 1499 1502 1504 1506 1507 1509 1510 1512 1513 1515 1516 1518 1519 1520 1521 1521 1522 1522 1522 1522 1522 1523 1523 1523 1523 1523 1523 1523 1523 1524 1524 1524 1524 1524 1524 1524 1524 1524 1524 1524
1484 1489 1493 1497 1500 1503 1505 1506 1508 1509 1511 1513 1514 1515 1517 1518 1519 1520 1521 1521 1522 1522 1522 1522 1522 1522 1522 1522 1522 1522 1522 1522 1523 1523 1523 1523 1523 1522 1522 1522 1522 1522 1522
1483 1488 1492 1495 1498 1501 1504 1505 1507 1508 1510 1512 1513 1515 1516 1518 1519 1519 1520 1521 1521 1521 1521 1521 1521 1521 1521 1521 1521 1521 1521 1521 1521 1521 1521 1521 1521 1521 1521 1521 1520 1520 1520
1481 1486 1490 1494 1497 1500 1502 1504 1505 1507 1509 1511 1512 1514 1515 1517 1518 1519 1519 1520 1520 1520 1520 1520 1520 1520 1520 1520 1520 1520 1520 1520 1520 1520 1520 1519 1520 1519 1519 1519 1519 1518 1518
1479 1484 1488 1492 1496 1498 1501 1503 1505 1506 1508 1510 1512 1513 1514 1515 1517 1517 1518 1519 1519 1520 1519 1519 1519 1519 1519 1519 1519 1518 1519 1519 1518 1518 1518 1518 1517 1517 1517 1517 1517 1517 1515
1478 1483 1487 1491 1494 1497 1500 1502 1504 1505 1507 1509 1511 1512 1513 1514 1515 1516 1517 1517 1518 1518 1518 1518 1518 1518 1518 1518 1517 1517 1517 1517 1517 1517 1516 1516 1516 1515 1515 1515 1515 1515 1514
1478 1482 1486 1490 1493 1496 1499 1501 1503 1505 1507 1508 1510 1511 1512 1513 1514 1515 1516 1516 1517 1517 1517 1517 1517 1517 1517 1516 1516 1516 1516 1515 1515 1515 1514 1514 1514 1513 1513 1513 1512 1512 1512
1477 1481 1485 1489 1492 1495 1498 1500 1502 1504 1506 1507 1508 1510 1511 1512 1513 1513 1514 1515 1515 1515 1515 1515 1515 1516 1515 1515 1515 1514 1514 1514 1513 1513 1512 1512 1512 1511 1510 1510 1510 1509 1509
1477 1481 1484 1487 1491 1494 1497 1499 1501 1503 1505 1506 1507 1509 1510 1510 1511 1512 1512 1513 1513 1514 1514 1514 1514 1514 1514 1514 1513 1513 1512 1512 1511 1511 1510 1510 1509 1509 1508 1508 1507 1507 1506
1478 1481 1484 1487 1490 1493 1495 1498 1500 1502 1504 1505 1506 1507 1508 1509 1509 1510 1511 1511 1511 1511 1512 1512 1512 1512 1512 1511 1511 1511 1510 1510 1509 1508 1508 1507 1507 1506 1506 1505 1505 1504 1503
1479 1482 1485 1487 1489 1492 1495 1497 1499 1501 1502 1503 1504 1505 1506 1507 1508 1508 1509 1509 1509 1510 1509 1510 1510 1510 1510 1509 1509 1509 1508 1508 1507 1506 1506 1505 1505 1504 1503 1503 1502 1501 1500
1480 1483 1485 1487 1490 1492 1494 1496 1497 1499 1501 1502 1503 1504 1504 1505 1506 1506 1506 1507 1507 1507 1507 1507 1507 1507 1508 1507 1507 1506 1506 1505 1504 1504 1503 1503 1502 1501 1500 1500 1499 1499 1498
1480 1483 1485 1488 1490 1491 1493 1494 1496 1497 1499 1500 1501 1502 1502 1503 1503 1504 1504 1504 1504 1504 1504 1504 1505 1504 1504 1504 1504 1504 1503 1503 1502 1501 1500 1500 1500 1498 1497 1497 1496 1496 1495
1480 1482 1484 1487 1489 1490 1491 1493 1494 1496 1497 1498 1499 1499 1500 1501 1501 1501 1501 1502 1502 1502 1502 1502 1502 1501 1501 1502 1501 1501 1500 1500 1499 1498 1498 1497 1496 1496 1495 1494 1493 1492 1492
1479 1482 1483 1485 1487 1489 1490 1491 1493 1494 1494 1495 1496 1497 1497 1498 1498 1498 1498 1499 1499 1499 1499 1499 1499 1498 1498 1498 1498 1498 1498 1497 1497 1496 1496 1495 1494 1493 1492 1491 1490 1489 1489
1480 1481 1482 1484 1486 1487 1489 1490 1491 1491 1492 1493 1493 1494 1494 1495 1495 1495 1495 1496 1496 1496 1496 1496 1496 1496 1496 1496 1496 1495 1495 1494 1494 1494 1493 1492 1491 1491 1490 1489 1488 1487 1486
1480 1481 1482 1483 1485 1486 1487 1488 1489 1489 1490 1490 1491 1491 1491 1492 1492 1492 1492 1493 1493 1493 1493 1493 1493 1493 1493 1493 1493 1493 1492 1492 1492 1491 1490 1490 1489 1488 1487 1486 1485 1484 1483
1479 1481 1482 1482 1483 1484 1485 1486 1486 1487 1487 1488 1488 1488 1488 1489 1489 1489 1489 1490 1490 1490 1490 1490 1490 1490 1490 1490 1490 1490 1490 1490 1489 1489 1489 1488 1487 1486 1485 1484 1483 1482 1481
1479 1481 1482 1482 1482 1483 1484 1484 1485 1485 1485 1485 1485 1485 1485 1485 1485 1486 1486 1486 1486 1487 1486 1487 1487 1487 1487 1487 1487 1487 1487 1487 1486 1486 1486 1486 1485 1483 1482 1481 1481 1480 1479
1479 1480 1481 1481 1481 1481 1482 1482 1483 1483 1482 1482 1482 1481 1481 1481 1482 1482 1482 1482 1482 1482 1483 1483 1483 1484 1484 1483 1483 1483 1483 1483 1483 1483 1483 1482 1482 1481 1480 1479 1478 1477 1476
1478 1479 1479 1480 1480 1480 1480 1480 1480 1480 1479 1479 1479 1478 1478 1478 1478 1479 1479 1479 1479 1479 1479 1479 1480 1480 1480 1480 1480 1480 1480 1480 1480 1479 1479 1479 1479 1478 1477 1476 1475 1475 1474
1476 1477 1477 1477 1478 1478 1477 1477 1477 1477 1476 1476 1476 1476 1475 1475 1475 1475 1475 1476 1476 1476 1476 1476 1477 1477 1477 1476 1476 1477 1477 1477 1477 1476 1476 1476 1475 1475 1474 1474 1473 1472 1471